Weather History for Lamar, CO

Change the Weather History Date:

Wednesday, August 28, 2013

  Actual Average Record
Temperature  
Mean Temperature 79 °F 73 °F  
Max Temperature 99 °F 88 °F 105 °F (1922)
Min Temperature 59 °F 58 °F 40 °F (1992)
Degree Days  
Heating Degree Days 0 0  
Month to date heating degree days 0 0  
Since 1 June heating degree days 16 22  
Since 1 July heating degree days 0 2  
Cooling Degree Days 14 8  
Month to date cooling degree days 337 302  
Year to date cooling degree days 1293 966  
Since 1 June cooling degree days 1152 906  
Growing Degree Days 29 (Base 50)    
Moisture  
Dew Point 49 °F    
Average Humidity 45    
Maximum Humidity 75    
Minimum Humidity 15    
Precipitation  
Precipitation 0.00 in 0.05 in 1.49 in (1971)
Month to date precipitation 2.31 2.11  
Year to date precipitation 6.62 12.20  
Sea Level Pressure  
Sea Level Pressure 29.85 in    
Wind  
Wind Speed 9 mph (SSE)    
Max Wind Speed 20 mph    
Max Gust Speed 24 mph    
Visibility 10 miles    
Events      
T = Trace of Precipitation, MM = Missing Value Source: NWS Daily Summary

Daily Weather History Graph

Daily Weather History Graph

Search for Another Location

Airport:

Trip Planner

Search our weather history database for the weather conditions in past years. The results will help you decide how hot, cold, wet, or windy it might be!

Date:

Astronomy

Aug. 28, 2013 Rise Set
Actual Time 6:17 AM MDT 7:25 PM MDT
Civil Twilight 5:50 AM MDT 7:52 PM MDT
Nautical Twilight 5:17 AM MDT 8:25 PM MDT
Astronomical Twilight 4:43 AM MDT 8:58 PM MDT
Moon No Moon Rise 2:02 PM MDT (8/28)
Length of Visible Light 14h 02m
Length of Day
13h 08m
Waning Gibbous, 47% of the Moon is Illuminated
Aug 28
Waning Gibbous
Sep 5
New
Sep 12
First Quarter
Sep 19
Full
Sep 26
Last Quarter

Hourly Weather History & Observations

Time (MDT) Temp. Heat Index Dew Point Humidity Pressure Visibility Wind Dir Wind Speed Gust Speed Precip Events Conditions
12:53 AM 75.0 °F - 50.0 °F 41% 29.83 in 10.0 mi South 16.1 mph - N/A   Clear
1:53 AM 72.0 °F - 51.1 °F 48% 29.83 in 10.0 mi SSE 15.0 mph - N/A   Clear
2:53 AM 71.1 °F - 51.1 °F 49% 29.83 in 10.0 mi South 10.4 mph - N/A   Clear
3:53 AM 71.1 °F - 51.1 °F 49% 29.83 in 10.0 mi SSW 8.1 mph - N/A   Clear
4:53 AM 64.0 °F - 51.1 °F 63% 29.84 in 10.0 mi Calm Calm - N/A   Clear
5:53 AM 61.0 °F - 51.1 °F 70% 29.86 in 10.0 mi East 4.6 mph - N/A   Clear
6:53 AM 59.0 °F - 51.1 °F 75% 29.88 in 10.0 mi Calm Calm - N/A   Clear
7:53 AM 69.1 °F - 54.0 °F 58% 29.90 in 10.0 mi East 5.8 mph - N/A   Clear
8:53 AM 75.0 °F - 52.0 °F 44% 29.89 in 10.0 mi NW 3.5 mph - N/A   Clear
9:53 AM 81.0 °F 80.5 °F 54.0 °F 39% 29.90 in 10.0 mi NE 6.9 mph - N/A   Clear
10:53 AM 84.9 °F 83.3 °F 54.0 °F 34% 29.89 in 10.0 mi Variable 4.6 mph - N/A   Clear
11:53 AM 87.1 °F 85.3 °F 55.0 °F 33% 29.88 in 10.0 mi NE 8.1 mph - N/A   Clear
12:53 PM 97.0 °F - 42.1 °F 15% 29.84 in 10.0 mi SSE 12.7 mph - N/A   Clear
1:53 PM 98.1 °F - 42.1 °F 15% 29.82 in 10.0 mi SSE 13.8 mph 23.0 mph N/A   Clear
2:53 PM 99.0 °F - 42.1 °F 14% 29.81 in 10.0 mi SSE 15.0 mph 23.0 mph N/A   Clear
3:53 PM 98.1 °F - 42.1 °F 15% 29.80 in 10.0 mi Variable 3.5 mph 20.7 mph N/A   Clear
4:53 PM 98.1 °F - 42.1 °F 15% 29.80 in 10.0 mi South 12.7 mph 18.4 mph N/A   Clear
5:53 PM 97.0 °F - 43.0 °F 16% 29.81 in 10.0 mi South 12.7 mph - N/A   Clear
6:53 PM 93.0 °F - 45.0 °F 19% 29.83 in 10.0 mi SSE 10.4 mph - N/A   Clear
7:53 PM 86.0 °F - 46.9 °F 26% 29.83 in 10.0 mi SSE 10.4 mph - N/A   Clear
8:53 PM 82.9 °F - 46.9 °F 28% 29.85 in 10.0 mi SSE 11.5 mph - N/A   Clear
9:53 PM 80.1 °F - 48.0 °F 32% 29.85 in 10.0 mi SSE 12.7 mph - N/A   Clear
10:53 PM 78.1 °F - 51.1 °F 39% 29.86 in 10.0 mi SSE 12.7 mph - N/A   Clear
11:53 PM 77.0 °F - 51.1 °F 40% 29.86 in 10.0 mi SSE 12.7 mph - N/A   Clear